Location: Cruquius
(52.3348°N, 4.6319°E)
Time: 22:57:01
(UTC+00:00)

Cosmos 1733 - Pass Details

Date: 12 May 2021
Orbit: 505 x 519 km, 82.5° (Epoch: 24 June)

Event Time Altitude Azimuth Distance (km) Brightness Sun altitude
Rises 23:41:19 0° 351° (N) 2,625 8.3 -19.3°
Reaches altitude 10° 23:43:28 10° 355° (N) 1,736 7.1 -19.3°
Maximum altitude 23:47:15 63° 77° (ENE) 574 3.4 -19.2°
Enters shadow 23:48:08 46° 134° (SE) 693 3.5 -19.2°
